Regional Weather Roundup
Issued by NWS

Home | Current Version | Previous Version | Text Only | Print | Product List | Glossary On
Versions: 1 2 3 4 5 6 7 8 9 10 11 12 13 14 15 16 17 18 19 20 21 22 23 24 25 26 27 28 29 30 31 32 33 34 35 36 37 38 39 40 41 42 43 44 45 46 47 48 49 50
000
ASCA44 KEWX 242220
RWRMX

LATIN AMERICA AND CARIBBEAN REGIONAL WEATHER ROUNDUP
NATIONAL WEATHER SERVICE AUSTIN/SAN ANTONIO TX
400 PM CST FRI FEB 24 2017

NOTE: "FAIR" INDICATED FEW OR NO CLOUDS BELOW 12,000 FEET WITH NO
SIGNIFICANT WEATHER AND/OR OBSTRUCTIONS TO VISIBILITY.

BAJA CALIFORNIA

CITY           SKY/WX    TMP DP  RH WIND       PRES   REMARKS
LORETO         SUNNY     72  61  68 NE25      29.97F
LA PAZ         SUNNY     73  37  27 N18       29.98F
MEXICALI       MOSUNNY   64  21  19 NW6       30.12F
S.J. DEL CABO  SUNNY     77  52  41 SE9       29.94F
TIJUANA        SUNNY     59  41  51 NW12      30.16S

NORTHWESTERN MEXICO

CITY           SKY/WX    TMP DP  RH WIND       PRES   REMARKS
CULIACAN       SUNNY     84  61  45 W7        29.86F
DURANGO        SUNNY     73   9   8 E9        30.05F
GUAYMAS        SUNNY     75  48  38 W12       29.95S
HERMOSILLO     SUNNY     79  27  14 CALM      30.02F
CD. JUAREZ     SUNNY     63  23  22 W12G23    29.93S
LOS MOCHIS     SUNNY     77  43  29 NW21      29.93F
OBREGON        SUNNY     79  39  24 W14       29.92F

NORTHEASTERN MEXICO

CITY           SKY/WX    TMP DP  RH WIND       PRES   REMARKS
CHIHUAHUA      SUNNY     77   5   6 W16       29.96F
MATAMOROS      SUNNY     90  54  29 N20       29.70S
MONCLOVA       SUNNY     90  27  10 NW5       29.79F
MONTERREY      SUNNY     97  12   4 W12       29.71F HX  90
NUEVO LAREDO   SUNNY     88  32  13 N9        29.77F
PIEDRAS NEGRAS SUNNY     86  48  26 NW9       29.81S
REYNOSA        SUNNY     88  28  11 NW16      29.72S
SALTILLO       SUNNY     79  34  19 W9        30.00F
TORREON        SUNNY     82  12   7 N14       29.93F
CD. VICTORIA   SUNNY     97  25   7 NE16      29.68S HX  90

WESTERN MEXICO

CITY           SKY/WX    TMP DP  RH WIND       PRES   REMARKS
AGUASCALIENTES SUNNY     79   9   7 SW14      30.07F
COLIMA         SUNNY     81  57  44 SW17      29.87F
DEL BAJIO      SUNNY     79  21  11 NW8       30.11F
GUADALAJARA    SUNNY     45  28  53 E3        30.01F
MANZANILLO     MOSUNNY   79  70  73 SW6       29.78
MAZATLAN       SUNNY     77  64  65 NW17      29.86F
P. VALLARTA    SUNNY     75  68  78 S15       29.85F
URUAPAN        SUNNY     77  41  27 SE12      30.03F
ZACATECAS      SUNNY     72  16  12 NE6       30.11F

CENTRAL MEXICO

CITY           SKY/WX    TMP DP  RH WIND       PRES   REMARKS
CUERNAVACA     SUNNY     86  23  10 NE6       29.93F
MEXICO CITY    SUNNY     75  10   8 E10       30.12F
MORELIA        SUNNY     79  19  11 N10       30.06F
POZA RICA      SUNNY     95  61  31 CALM      29.68F HX  95
PUEBLA         SUNNY     73  21  14 S12       30.14F
QUERETARO      SUNNY     77  23  13 W12       30.11F
S. LUIS POTOSI SUNNY     81   0   4 W8        30.03F
TAMPICO        SUNNY     88  61  40 E12       29.66S
TOLUCA         SUNNY     72  16  12 W5        30.21F

SOUTHERN MEXICO

CITY           SKY/WX    TMP DP  RH WIND       PRES   REMARKS
ACAPULCO       SUNNY     82  72  69 W12       29.78F
B. DE HUATULCO MOSUNNY   82  68  61 W23G35    29.84
OAXACA         SUNNY     86  21   9 S7        29.95F
P. ESCONDIDO     N/A    N/A N/A N/A MISG        N/A
VERACRUZ       SUNNY     90  72  55 E8        29.65F HX  96
ZIHUATANEJO    SUNNY     82  70  65 SW7       29.82F

YUCATAN PENINSULA

CITY           SKY/WX    TMP DP  RH WIND       PRES   REMARKS
CAMPECHE       SUNNY     90  55  31 NW12G23   29.67F
CANCUN         SUNNY     81  68  65 SE16      29.76F
CHETUMAL       SUNNY     82  64  54 SE12      29.75F
CD. DEL CARMEN SUNNY     86  64  48 N6        29.69F
COZUMEL        MOSUNNY   81  66  61 S9        29.77S
MERIDA         SUNNY     97  50  20 E7        29.69F HX  94
MINATITLAN     SUNNY     91  70  49 S12G23    29.66S HX  97
TAPACHULA      SUNNY     88  70  55 SW16      29.79F HX  92
TUX. GUTIERREZ MOSUNNY   90  57  33 SE12      29.77F
VILLAHERMOSA   SUNNY     91  61  35 NE6       29.69F HX  91

CENTRAL AMERICA

CITY           SKY/WX    TMP DP  RH WIND       PRES   REMARKS
BELIZE CITY    MOSUNNY   84  72  65 E8        29.74S
MANAGUA        PTCLDY    90  68  48 NE5       29.74S HX  93

CARIBBEAN

CITY           SKY/WX    TMP DP  RH WIND       PRES   REMARKS
ARUBA          MOSUNNY   82  73  74 E17       29.80S
CURACAO        PTCLDY    82  70  65 E13       29.83S
KINGSTON       MOSUNNY   82  70  65 S8        29.83S
NASSAU         MOSUNNY   82  55  39 W6        29.80R
SAN JUAN       PTCLDY    84  66  54 S6        29.90R
SANTO DOMINGO  MOCLDY    81  72  74 S7        29.86S
ST. CROIX      PTCLDY    81  66  61 S5        29.94
ST. KITTS      PTCLDY    79  66  65 E7        29.92S
ST. MAARTEN    PTCLDY    79  70  73 SE8       29.92S
ST. THOMAS     PTCLDY    81  70  69 S8        29.92

$$




USA.gov is the U.S. government's official web portal to all federal, state and local government web resources and services.